Location: Quail Creek Observatory
(32.9410°N, 97.1240°W)
Time: 12:30:11
(UTC-05:00)

Daily predictions for brighter satellites

Satellite Brightness Start Highest point End
(mag) Time Altitude Azimuth Time Altitude Azimuth Time Altitude Azimuth
Cosmos 2208 Rocket 4.0 20:47:25 10° S 20:52:31 61° ESE 20:57:37 10° NNE
Meteor 1-18 Rocket 4.4 20:51:54 10° S 20:57:38 66° E 21:03:30 10° NNE
Cosmos 2151 Rocket 3.9 20:55:03 10° NNW 20:59:28 71° W 21:03:50 10° S
Cosmos 1864 Rocket 4.5 20:53:54 10° S 21:00:01 71° E 21:06:07 10° N
Cosmos 1939 Rocket 3.3 20:58:21 10° SSE 21:02:17 47° ENE 21:06:16 10° N
Cosmos 2322 Rocket 3.4 21:02:57 10° N 21:07:34 26° ENE 21:12:02 11° ESE
CZ-2D R/B 3.8 21:04:25 10° S 21:08:13 61° W 21:12:05 10° NNW
YAOGAN 6 2.6 21:05:50 10° SSE 21:09:30 69° ENE 21:13:10 10° N
Cosmos 1242 Rocket 4.0 21:09:57 10° NNE 21:12:50 22° ENE 21:15:05 13° ESE
SL-16 R/B 3.1 21:12:44 10° N 21:17:52 34° ENE 21:22:11 14° ESE
Cosmos 1340 Rocket 4.4 21:18:28 14° SE 21:20:25 19° E 21:23:16 10° NE
Thor Agena Rocket 3.8 21:16:41 10° N 21:21:57 76° WNW 21:27:06 10° SSW
GPS 2-05 Rocket1 3.1 21:21:03 10° SW 21:24:11 42° SSE 21:26:55 13° E
SJ-11-01 4.4 21:20:53 10° SSE 21:25:32 63° ENE 21:30:13 10° N
Delta 168 4.3 21:23:20 10° WSW 21:25:55 17° SSW 21:27:33 13° SSE
Spot 2 Rocket 3.7 21:25:08 12° SSE 21:29:43 55° ENE 21:34:37 10° N
Timation 2 Rocket 4.1 21:24:09 10° SSW 21:30:05 73° WNW 21:36:07 10° NNE
Resurs 1-3 3.6 21:27:37 10° SSE 21:31:59 86° ENE 21:36:23 10° N
Cosmos 468 Rocket 4.4 21:26:48 10° SSW 21:32:03 69° WNW 21:37:17 10° NNE
Cosmos 1763 Rocket 3.5 21:31:06 10° S 21:36:24 78° ESE 21:41:42 10° NNE
Cosmos 1937 Rocket 4.0 21:33:40 10° N 21:38:31 41° ENE 21:41:33 21° SE
Cosmos 1455 Rocket 4.2 21:39:15 10° NNE 21:42:56 26° ENE 21:44:20 22° ESE
Cosmos 841 Rocket 3.5 21:37:51 10° S 21:42:59 60° ESE 21:48:09 10° NNE
Cosmos 2346 Rocket 4.5 21:40:53 10° N 21:47:06 87° W 21:53:14 10° S
USA 186 3.8 21:45:01 10° SSW 21:47:45 26° W 21:50:37 10° NW
ERS-2 2.9 21:44:19 10° S 21:47:49 50° W 21:51:25 10° NNW
DELTA 2 R/B (1) 4.1 21:44:09 10° SSW 21:49:07 35° SE 21:53:20 14° E
Cosmos 1975 Rocket 3.2 21:45:17 10° S 21:49:36 76° W 21:53:56 10° N
Chunghua 1 4.4 21:47:25 10° WSW 21:51:07 78° SSE 21:53:26 22° E
Cosmos 1666 3.0 21:52:10 10° NNW 21:56:01 67° W 21:58:43 18° S
BREEZE M DEB (TANK) 4.2 21:46:54 10° NW 21:56:02 36° NNE 21:58:38 17° ENE
Okean 1 Rocket 4.3 21:52:14 10° NNW 21:56:16 39° W 22:00:17 10° SSW
Cosmos 1975 3.4 21:52:37 10° NNW 21:56:33 54° W 21:59:53 14° S
Tiangong 2 4.0 21:54:48 10° NW 21:56:36 14° N 21:58:23 10° NNE
Cosmos 2360 Rocket 3.3 21:51:52 10° N 21:56:42 28° ENE 21:58:58 22° E
USA 32 4.4 21:52:08 10° N 21:57:08 44° E 21:59:24 28° SE
Atlas Centaur 2 1.9 21:54:26 10° W 21:58:02 34° SSW 21:58:45 31° S
Cosmos 1980 Rocket 3.9 21:54:26 10° NW 21:59:14 29° WSW 22:04:02 10° SSW
Shenzhou-11 Module 4.2 21:57:30 10° NNW 21:59:45 19° NNE 22:01:06 15° NE
USA 234 3.7 21:55:33 10° NE 22:02:03 67° NW 22:08:32 10° SW
Cosmos 858 Rocket 4.4 21:57:11 10° NNW 22:02:25 84° ENE 22:05:18 27° SSE
Delta 7925 Rocket 4.0 21:58:47 10° WSW 22:03:02 33° S 22:04:02 29° SSE
GPS 2-04 Rocket1 4.3 22:01:18 10° W 22:04:38 23° SSW 22:05:40 21° S
Cosmos 292 Rocket 3.8 22:01:06 10° SSW 22:05:52 83° WNW 22:10:38 10° NNE
MetOp-A 4.3 22:04:53 30° SE 22:07:23 57° ENE 22:12:37 10° N
ERS-1 Rocket 3.7 22:07:43 30° ESE 22:09:08 36° ENE 22:13:41 10° N
Cosmos 1544 Rocket 3.7 22:06:09 10° N 22:10:31 56° E 22:11:44 41° SE
Iridium 2 4.2 22:08:17 17° SSW 22:11:02 57° W 22:14:49 10° N
Cosmos 1743 3.7 22:07:50 10° NNW 22:11:28 44° W 22:13:50 19° SSW
Meteor 2-9 Rocket 4.0 22:06:26 10° N 22:11:48 74° E 22:14:27 31° SSE
ATLAS CENTAUR R/B 4.3 22:13:16 10° W 22:15:21 13° WSW 22:17:28 10° SW
Cosmos 1356 3.2 22:15:40 62° S 22:16:11 84° E 22:19:40 10° N
SJ 16-02 2.6 22:16:33 10° N 22:20:17 26° ENE 22:20:26 26° ENE
Helios 1B rocket 4.2 22:17:27 10° NE 22:19:16 19° ENE 22:19:16 19° ENE
Cosmos 1536 Rocket 3.5 22:21:53 48° SSE 22:23:01 71° E 22:27:27 10° N
CENTAUR R/B 3.3 22:18:04 10° SW 22:23:42 51° NW 22:30:09 10° NNE
Cosmos 1898 Rocket 4.4 22:19:16 10° NNW 22:24:19 46° WSW 22:27:29 21° SSW
Meteor 1-23 Rocket 4.1 22:21:52 30° S 22:24:42 74° E 22:30:15 10° NNE
Cosmos 2333 Rocket 4.3 22:23:49 10° NNE 22:26:11 12° NE 22:27:41 11° ENE
Resurs 01 Rocket 3.8 22:23:07 10° SSW 22:26:31 22° W 22:29:57 10° NW
SPOT 1/Viking Rocket 4.4 22:26:19 31° E 22:27:02 32° ENE 22:31:34 10° N
Cosmos 249 4.4 22:24:21 10° NNW 22:28:02 86° ENE 22:28:10 82° ESE
COSMOS 2428 4.2 22:25:13 10° N 22:29:31 22° ENE 22:30:38 20° ENE
H-2A R/B 1.8 22:29:02 49° SSE 22:30:23 77° ENE 22:35:24 10° N
SL-08 RB Rocket 3.6 22:30:45 57° SSE 22:31:38 80° ENE 22:36:11 10° N
CZ-4C R/B 4.2 22:26:04 10° N 22:32:10 27° NE 22:35:47 20° E
Meteor 2-4 Rocket 4.5 22:28:58 10° SSW 22:34:11 48° WNW 22:39:33 10° N
Aureole 2 Rocket 3.5 22:32:07 10° NNW 22:33:53 34° NNW 22:33:53 34° NNW
Cosmos 1515 3.9 22:35:38 56° SW 22:36:12 66° W 22:40:01 10° N
Cosmos 1125 Rocket 4.3 22:32:53 10° N 22:37:39 34° ENE 22:38:03 34° ENE
Lacrosse 5 rocket 2.5 22:34:05 10° NNW 22:37:53 30° NE 22:38:05 30° NE
ARGOS 3.3 22:37:57 37° S 22:40:04 67° WSW 22:45:27 10° NNW
Cosmos 2227 Rocket 4.4 22:47:43 11° ENE 22:47:43 11° ENE 22:48:06 10° ENE
Nadezhda 4 Rocket 4.1 22:40:47 10° N 22:46:59 56° E 22:48:06 49° ESE
Cosmos 2322 Rocket 3.4 22:46:34 10° NW 22:51:37 35° WSW 22:53:53 25° SSW
Cosmos 2322 3.7 22:46:32 10° NNW 22:52:13 63° ENE 22:52:56 58° ESE
Cosmos 2237 Rocket 4.4 22:53:28 10° NNE 22:55:30 12° NE 22:56:28 11° ENE
DMSP B5D2-2 4.1 22:50:26 10° N 22:55:44 80° WNW 22:57:07 51° SSW
Landsat 7 4.3 22:57:52 49° NE 22:57:52 49° NE 23:02:04 10° N
Centaur D-1AR AC-36 3.6 22:37:00 10° WSW 22:58:11 39° SSW 22:59:00 38° S
Cosmos 1066 Rocket 4.1 22:58:35 63° E 22:58:35 63° E 23:03:48 10° NNE
SL-16 R/B 3.8 22:57:07 10° NW 23:01:45 27° WSW 23:04:05 20° SW
Cosmos 1025 Rocket 3.4 23:04:19 60° N 23:04:19 60° N 23:07:55 10° N
OAO 1 Rocket 4.4 23:04:38 10° WNW 23:09:47 83° W 23:09:47 83° W
SL-19 R/B 4.4 23:15:34 65° E 23:16:02 68° ENE 23:22:26 10° N
Terra 2.6 23:17:13 44° NE 23:17:13 44° NE 23:20:51 10° N
SPOT 5 3.1 23:17:09 59° NW 23:17:09 59° NW 23:20:57 10° NNW
Cosmos 2219 3.1 23:16:32 86° S 23:16:41 89° ESE 23:22:28 10° NNE
Cosmos 2237 4.2 23:17:19 10° NNW 23:23:00 70° WSW 23:23:05 70° WSW
Helios 1A 4.3 23:28:05 37° WNW 23:28:05 37° WNW 23:31:04 10° NNW
DELTA 2 R/B (1) 4.0 23:29:48 10° WSW 23:34:19 57° W 23:34:19 57° W
CZ-2C R/B 3.4 23:33:31 10° NNE 23:37:37 46° NE 23:37:37 46° NE
Cosmos 2360 Rocket 3.4 23:35:40 10° NW 23:40:36 32° WSW 23:40:45 32° WSW
Cosmos 2195 Rocket 4.5 23:35:31 10° N 23:41:12 72° NE 23:41:12 72° NE
Cosmos 1634 Rocket 4.0 23:42:54 75° WSW 23:43:06 76° W 23:49:27 10° N
Cosmos 2219 Rocket 2.6 23:38:43 10° NNW 23:43:21 57° NNE 23:43:21 57° NNE
Cosmos 2333 4.5 23:40:13 10° NNW 23:45:09 65° NW 23:45:09 65° NW
COSMOS 2455 3.5 23:54:03 46° NE 23:54:03 46° NE 23:58:14 10° NNE
